[[{"header":{"parameterUnit":"m.s-1","parameterCategory":1,"la1":30.2991,"la2":30.254,"lo1":-89.0895,"lo2":-89.0444,"dy":0.0017,"dx":0.0017,"nx":28,"ny":28,"refTime":"2024-08-04T03:00:00:Z","depth":0,"parameterNumber":2,"parameterNumberName":"U-component_of_WINDS"},"data":[0,0,0,0,0,0,0,0,0,0,0,0,0,0,0,0,0,0,0,0,0,0,0,0,0,0,0,0,0,0,0,0,0,0,0,0,0,0,0,0,0,0,0,0,0,0,0,0,0,0,0,0,0,0,0,0,0,0,-1.1233,-1.1233,0,-1.1289,-1.129,-1.129,-1.1291,-1.129,-1.1289,-1.1289,-1.1347,-1.1349,-1.1352,0,0,0,0,0,0,0,0,0,0,0,0,0,-1.1126,-1.1128,-1.1233,-1.1233,-1.1234,-1.1289,-1.129,-1.129,-1.1291,-1.129,-1.1289,-1.1288,-1.1346,-1.1349,-1.1352,0,0,0,0,0,0,0,0,0,0,0,0,0,-1.1176,-1.1129,-1.1233,-1.1241,-1.1242,-1.1289,-1.129,-1.1291,-1.1291,-1.129,-1.1289,-1.1288,-1.1346,-1.1349,-1.1352,-1.1394,0,0,-1.1362,-1.1364,0,0,0,0,0,0,0,0,-1.1173,-1.118,-1.1239,-1.124,-1.1242,-1.1282,-1.1273,-1.1325,-1.1291,-1.1273,-1.1289,-1.1287,-1.1326,-1.1331,-1.1344,-1.1397,-1.14,-1.1363,-1.1365,-1.1366,-1.1367,0,0,0,0,0,0,0,-1.117,-1.1178,-1.1255,-1.124,-1.1242,-1.1242,-1.1248,-1.1283,-1.1305,-1.1274,-1.1274,-1.1281,-1.1327,-1.1341,-1.1345,-1.14,-1.1363,-1.1365,-1.1368,-1.1369,-1.1491,-1.1492,0,0,0,0,0,0,-1.1165,-1.1175,-1.1253,-1.1257,-1.1204,-1.1245,-1.1251,-1.127,-1.1304,-1.1309,-1.1282,-1.1281,-1.1336,-1.1342,-1.1348,-1.14,-1.1366,-1.1369,-1.1371,-1.1489,-1.1491,-1.1492,0,0,0,0,0,0,-1.1162,-1.1172,-1.1251,-1.1216,-1.1226,-1.1248,-1.1269,-1.1272,-1.1286,-1.131,-1.1314,-1.1292,-1.1335,-1.1343,-1.1383,-1.1402,-1.1371,-1.1374,-1.1488,-1.149,-1.1492,-1.1504,0,0,0,0,0,0,-1.1159,-1.1171,-1.1187,-1.1216,-1.1228,-1.1285,-1.127,-1.1274,-1.1291,-1.1291,-1.1321,-1.1325,-1.1335,-1.1378,-1.1386,-1.1406,-1.1376,-1.1486,-1.1489,-1.1491,-1.1502,-1.1506,-1.1509,0,0,0,0,0,-1.1156,-1.1189,-1.1188,-1.1197,-1.1249,-1.1286,-1.1293,-1.1303,-1.1293,-1.131,-1.1325,-1.1324,-1.1398,-1.1382,-1.1391,-1.1412,-1.1485,-1.1488,-1.1491,-1.15,-1.1505,-1.1509,0,0,0,0,0,0,-1.1162,-1.1193,-1.1192,-1.1236,-1.1258,-1.1286,-1.1308,-1.1308,-1.1334,-1.1333,-1.1345,-1.1351,-1.1391,-1.1405,-1.1387,-1.1455,-1.144,-1.1445,-1.1444,-1.1449,-1.1453,-1.1449,-1.1379,0,0,0,0,0,-1.1168,-1.1196,-1.1221,-1.1257,-1.1268,-1.1286,-1.1303,-1.1309,-1.1333,-1.1342,-1.1361,-1.1384,-1.1413,-1.1431,-1.1459,-1.1503,-1.151,-1.1522,-1.1526,-1.1529,-1.1533,-1.1558,-1.1564,-1.1501,-1.1501,-1.1501,0,0,-1.1182,-1.1202,-1.1219,-1.1259,-1.1277,-1.1306,-1.1294,-1.1325,-1.1346,-1.1347,-1.1386,-1.14,-1.1427,-1.1469,-1.1489,-1.1482,-1.1552,-1.1532,-1.1535,-1.1538,-1.1561,-1.1567,-1.1573,-1.1503,-1.1503,-1.1503,0,0,-1.1222,-1.1239,-1.1271,-1.1289,-1.1317,-1.1328,-1.1336,-1.1363,-1.1373,-1.1412,-1.1413,-1.1438,-1.1487,-1.1506,-1.1522,-1.1568,-1.1568,-1.1577,-1.1597,-1.1621,-1.1626,-1.163,-1.1647,-1.1653,-1.1581,-1.1581,-1.1581,0,-1.1235,-1.1279,-1.1288,-1.1319,-1.1336,-1.1337,-1.137,-1.1387,-1.1422,-1.1434,-1.1426,-1.1487,-1.1505,-1.1552,-1.1563,-1.1576,-1.1585,-1.1574,-1.1624,-1.1629,-1.1633,-1.1649,-1.1656,-1.1582,-1.1581,-1.1581,-1.1581,0,-1.1294,-1.1324,-1.1346,-1.138,-1.14,-1.1431,-1.1446,-1.1464,-1.1468,-1.148,-1.152,-1.1541,-1.1573,-1.1584,-1.1589,-1.1632,-1.1627,-1.1621,-1.1608,-1.164,-1.1655,-1.1662,-1.1583,-1.1583,-1.1582,-1.1582,0,0,-1.1342,-1.1379,-1.1387,-1.1402,-1.1432,-1.1455,-1.1486,-1.1517,-1.1533,-1.1557,-1.1584,-1.1625,-1.1619,-1.1637,-1.1644,-1.1664,-1.17,-1.1656,-1.1657,-1.1664,-1.1749,-1.1755,-1.1762,-1.1699,-1.17,-1.1701,-1.1747,0,-1.1385,-1.1441,-1.145,-1.1499,-1.1527,-1.1527,-1.1554,-1.1576,-1.1587,-1.1613,-1.1625,-1.1654,-1.1645,-1.1656,-1.1676,-1.1691,-1.1717,-1.1688,-1.1725,-1.1727,-1.172,-1.177,-1.1776,-1.1818,-1.1754,-1.1755,-1.1755,0,-1.1444,-1.1469,-1.1521,-1.1547,-1.1559,-1.1583,-1.1612,-1.1636,-1.1659,-1.1666,-1.1686,-1.169,-1.1722,-1.1705,-1.1751,-1.173,-1.1746,-1.1755,-1.1757,-1.1763,-1.1744,-1.1777,-1.1832,-1.1839,-1.1765,-1.1764,-1.1763,0,-1.1475,-1.1521,-1.1558,-1.1571,-1.1601,-1.1618,-1.1632,-1.1655,-1.1672,-1.1697,-1.1709,-1.1737,-1.1753,-1.1775,-1.1786,-1.1773,-1.1831,-1.1815,-1.1838,-1.1838,-1.1852,-1.1851,-1.1911,-1.1859,-1.1859,-1.1859,-1.1859,0,-1.1524,-1.1556,-1.1572,-1.1595,-1.1631,-1.164,-1.1675,-1.1688,-1.1708,-1.1733,-1.1735,-1.1759,-1.1771,-1.1797,-1.1806,-1.1842,-1.1849,-1.1856,-1.1858,-1.1857,-1.1856,-1.1868,-1.1866,-1.1861,-1.1861,-1.186,-1.186,0,-1.1565,-1.1577,-1.1617,-1.1642,-1.1649,-1.1675,-1.1696,-1.1718,-1.1729,-1.1761,-1.1769,-1.1787,-1.1817,-1.183,-1.1867,-1.1873,-1.1915,-1.1914,-1.1907,-1.1908,-1.1931,-1.1929,-1.2002,-1.2012,-1.1953,-1.1953,-1.1954,0,-1.1596,-1.162,-1.1648,-1.1665,-1.1679,-1.1706,-1.1724,-1.1733,-1.1752,-1.178,-1.1799,-1.1829,-1.1854,-1.1903,-1.1919,-1.1947,-1.1948,-1.1971,-1.1952,-1.195,-1.195,-1.1949,-1.1951,-1.1975,-1.1976,-1.1977,-1.1977,0,-1.165,-1.1655,-1.168,-1.1708,-1.1729,-1.1752,-1.1773,-1.1787,-1.18,-1.1821,-1.1852,-1.1871,-1.1908,-1.1938,-1.1968,-1.1982,-1.1982,-1.1982,-1.1989,-1.1989,-1.1984,-1.1988,-1.1918,-1.1981,-1.1981,-1.198,-1.198,-1.198,-1.1688,-1.171,-1.1732,-1.1761,-1.1778,-1.1798,-1.182,-1.1833,-1.1859,-1.189,-1.1894,-1.1927,-1.195,-1.1989,-1.2004,-1.203,-1.2024,-1.2034,-1.2037,-1.204,-1.2042,-1.1979,-1.2035,-1.2035,-1.2035,-1.2035,-1.2035,0,-1.1743,-1.1757,-1.1783,-1.1814,-1.1836,-1.1833,-1.1856,-1.1875,-1.1904,-1.1925,-1.1949,-1.1984,-1.2013,-1.2031,-1.206,-1.2078,-1.2078,-1.2085,-1.2085,-1.2088,-1.2045,-1.2036,-1.2084,-1.2084,-1.2084,-1.2084,-1.2084,-1.2084,-1.1775,-1.1812,-1.1819,-1.1864,-1.1878,-1.191,-1.1924,-1.1942,-1.1959,-1.1998,-1.2022,-1.2033,-1.2053,-1.2083,-1.2109,-1.2114,-1.2125,-1.2132,-1.2137,-1.2096,-1.2091,-1.2086,-1.2078,-1.2134,-1.2134,-1.2178,-1.2178,-1.2179]},{"header":{"parameterUnit":"m.s-1","parameterCategory":1,"la1":30.2991,"la2":30.254,"lo1":-89.0895,"lo2":-89.0444,"dy":0.0017,"dx":0.0017,"nx":28,"ny":28,"refTime":"2024-08-04T03:00:00:Z","depth":0,"parameterNumber":3,"parameterNumberName":"V-component_of_WINDS"},"data":[0,0,0,0,0,0,0,0,0,0,0,0,0,0,0,0,0,0,0,0,0,0,0,0,0,0,0,0,0,0,0,0,0,0,0,0,0,0,0,0,0,0,0,0,0,0,0,0,0,0,0,0,0,0,0,0,0,0,-4.4749,-4.475,0,-4.4812,-4.4812,-4.4813,-4.4791,-4.4789,-4.4788,-4.4787,-4.4845,-4.4848,-4.4851,0,0,0,0,0,0,0,0,0,0,0,0,0,-4.4607,-4.461,-4.4749,-4.475,-4.4751,-4.4811,-4.4812,-4.4813,-4.4791,-4.4789,-4.4788,-4.4786,-4.4844,-4.4847,-4.4851,0,0,0,0,0,0,0,0,0,0,0,0,0,-4.4669,-4.461,-4.4749,-4.4747,-4.4748,-4.4811,-4.4812,-4.4813,-4.4791,-4.4789,-4.4787,-4.4785,-4.4843,-4.4847,-4.4851,-4.4919,0,0,-4.4864,-4.4866,0,0,0,0,0,0,0,0,-4.4665,-4.4674,-4.4747,-4.4748,-4.4748,-4.4791,-4.4783,-4.4848,-4.4792,-4.4775,-4.4787,-4.4784,-4.4829,-4.4834,-4.485,-4.4921,-4.4924,-4.4865,-4.4867,-4.4869,-4.487,0,0,0,0,0,0,0,-4.4661,-4.4671,-4.4774,-4.4748,-4.4749,-4.4742,-4.4748,-4.4796,-4.4812,-4.4776,-4.4775,-4.4783,-4.4828,-4.4846,-4.4851,-4.4925,-4.4865,-4.4868,-4.4871,-4.4873,-4.5056,-4.5058,0,0,0,0,0,0,-4.4657,-4.4668,-4.4772,-4.4776,-4.4701,-4.4746,-4.4753,-4.478,-4.4812,-4.4815,-4.4784,-4.4781,-4.484,-4.4846,-4.4853,-4.4935,-4.4869,-4.4873,-4.4875,-4.5053,-4.5056,-4.5059,0,0,0,0,0,0,-4.4654,-4.4667,-4.4769,-4.4721,-4.4734,-4.4751,-4.478,-4.4782,-4.4799,-4.4818,-4.482,-4.4799,-4.4838,-4.4847,-4.4903,-4.4937,-4.4875,-4.4879,-4.5051,-4.5054,-4.5057,-4.5099,0,0,0,0,0,0,-4.465,-4.4666,-4.4693,-4.4722,-4.4737,-4.482,-4.4782,-4.4785,-4.4807,-4.4804,-4.4833,-4.4835,-4.4837,-4.4897,-4.4907,-4.4942,-4.4882,-4.5048,-4.5052,-4.5056,-4.5095,-4.5104,-4.5111,0,0,0,0,0,-4.4645,-4.47,-4.4694,-4.4707,-4.4771,-4.4822,-4.483,-4.4833,-4.481,-4.4837,-4.4849,-4.4834,-4.4931,-4.4903,-4.4914,-4.495,-4.5046,-4.5051,-4.5056,-4.5091,-4.5102,-4.5111,0,0,0,0,0,0,-4.4672,-4.4704,-4.4697,-4.4764,-4.4791,-4.4818,-4.4852,-4.4844,-4.4876,-4.4871,-4.4871,-4.4878,-4.4936,-4.4948,-4.4916,-4.5018,-4.4985,-4.4993,-4.5008,-4.5018,-4.5026,-4.5022,-4.4886,0,0,0,0,0,-4.4686,-4.4727,-4.4752,-4.4808,-4.4822,-4.4835,-4.4857,-4.4857,-4.4884,-4.4894,-4.491,-4.4935,-4.4972,-4.4995,-4.5029,-4.5096,-4.5102,-4.5127,-4.5135,-4.5141,-4.5148,-4.5185,-4.5197,-4.5076,-4.5076,-4.5076,0,0,-4.4715,-4.4737,-4.4763,-4.4814,-4.4835,-4.4876,-4.4844,-4.4888,-4.4918,-4.49,-4.4955,-4.4968,-4.4996,-4.5058,-4.5086,-4.507,-4.5183,-4.5148,-4.5153,-4.5157,-4.5192,-4.5203,-4.5214,-4.5079,-4.5079,-4.5078,0,0,-4.4789,-4.481,-4.486,-4.4882,-4.4914,-4.4922,-4.4934,-4.4963,-4.4972,-4.5027,-4.5015,-4.5049,-4.5111,-4.5132,-4.5151,-4.5234,-4.5222,-4.5244,-4.5287,-4.5324,-4.5333,-4.5342,-4.5372,-4.5383,-4.5251,-4.5251,-4.5251,0,-4.482,-4.4883,-4.4886,-4.4932,-4.4955,-4.4943,-4.4993,-4.5013,-4.5054,-4.507,-4.5052,-4.513,-4.5148,-4.5216,-4.5236,-4.5251,-4.5265,-4.5242,-4.5332,-4.534,-4.5348,-4.5377,-4.5389,-4.5254,-4.5254,-4.5253,-4.5253,0,-4.492,-4.4964,-4.5,-4.5043,-4.507,-4.5117,-4.5127,-4.5153,-4.5151,-4.5161,-4.5217,-4.5238,-4.5277,-4.5293,-4.529,-4.536,-4.535,-4.5332,-4.5299,-4.5362,-4.539,-4.5401,-4.5258,-4.5257,-4.5256,-4.5255,0,0,-4.5013,-4.5058,-4.5071,-4.5091,-4.5126,-4.5159,-4.5206,-4.5246,-4.5269,-4.5297,-4.5337,-4.539,-4.5374,-4.5395,-4.5394,-4.5426,-4.5492,-4.5404,-4.5405,-4.5421,-4.5571,-4.5586,-4.5599,-4.5484,-4.5486,-4.5487,-4.5569,0,-4.509,-4.5176,-4.518,-4.5257,-4.5297,-4.5286,-4.5327,-4.5352,-4.5363,-4.5397,-4.5407,-4.5446,-4.5421,-4.5434,-4.5465,-4.5477,-4.5522,-4.5471,-4.552,-4.5521,-4.5515,-4.5613,-4.5628,-4.5704,-4.558,-4.5582,-4.5583,0,-4.5192,-4.5227,-4.5309,-4.5339,-4.5356,-4.5393,-4.5431,-4.5464,-4.5492,-4.5497,-4.5522,-4.5517,-4.5564,-4.5529,-4.5593,-4.5559,-4.5579,-4.5587,-4.559,-4.5596,-4.5557,-4.5622,-4.5728,-4.574,-4.56,-4.5598,-4.5597,0,-4.5254,-4.532,-4.5378,-4.5395,-4.5431,-4.5458,-4.5474,-4.55,-4.5524,-4.5556,-4.5572,-4.5608,-4.5628,-4.5655,-4.566,-4.5634,-4.5725,-4.569,-4.573,-4.573,-4.5751,-4.5749,-4.5863,-4.5761,-4.5761,-4.5761,-4.5761,0,-4.534,-4.5391,-4.5406,-4.5442,-4.5498,-4.5502,-4.5557,-4.557,-4.5594,-4.5631,-4.5622,-4.5657,-4.566,-4.5696,-4.5699,-4.5752,-4.5761,-4.5766,-4.5766,-4.5768,-4.5767,-4.5781,-4.5776,-4.5764,-4.5763,-4.5763,-4.5762,0,-4.5419,-4.5431,-4.5493,-4.5524,-4.5532,-4.5573,-4.5598,-4.5631,-4.5641,-4.5688,-4.5699,-4.5714,-4.5755,-4.5762,-4.5809,-4.5812,-4.5876,-4.587,-4.5868,-4.5867,-4.5908,-4.5904,-4.6035,-4.6053,-4.5939,-4.594,-4.5941,0,-4.5474,-4.5513,-4.5548,-4.5574,-4.5592,-4.5633,-4.5658,-4.5663,-4.5689,-4.5725,-4.5754,-4.5795,-4.5828,-4.5894,-4.5908,-4.5945,-4.594,-4.5984,-4.5946,-4.5946,-4.5942,-4.5941,-4.5945,-4.5991,-4.5993,-4.5994,-4.5994,0,-4.5571,-4.5576,-4.5614,-4.5655,-4.5686,-4.5717,-4.5746,-4.5767,-4.5776,-4.5806,-4.5849,-4.5875,-4.5925,-4.5966,-4.6002,-4.6017,-4.6007,-4.6006,-4.6018,-4.602,-4.6017,-4.6021,-4.5889,-4.6003,-4.6003,-4.6002,-4.6001,-4.6001,-4.5641,-4.5676,-4.5707,-4.5749,-4.5773,-4.5801,-4.5835,-4.5849,-4.5886,-4.5929,-4.5929,-4.5977,-4.6003,-4.6052,-4.6069,-4.6106,-4.6092,-4.6108,-4.6112,-4.6116,-4.6121,-4.6011,-4.6112,-4.6112,-4.6111,-4.6111,-4.6111,0,-4.5739,-4.5759,-4.5798,-4.5841,-4.5875,-4.5865,-4.5897,-4.5925,-4.5968,-4.5995,-4.6029,-4.6078,-4.6118,-4.6135,-4.6174,-4.62,-4.6196,-4.621,-4.6208,-4.6212,-4.6131,-4.6118,-4.6212,-4.6212,-4.6212,-4.6212,-4.6212,-4.6212,-4.5794,-4.5853,-4.5861,-4.5931,-4.595,-4.5999,-4.6018,-4.6044,-4.6066,-4.6123,-4.6157,-4.6168,-4.6191,-4.6232,-4.6267,-4.6271,-4.6286,-4.6302,-4.6304,-4.6228,-4.6218,-4.6208,-4.6196,-4.6305,-4.6305,-4.6382,-4.6383,-4.6383]}]]